Location: Foligno
(42.9600°N, 12.7050°E)
Time: 15:34:52
(UTC+02:00)

ISS - Pass Details

Date: 18 July 2018
Orbit: 402 x 408 km, 51.6° (Epoch: 21 July)

Event Time Altitude Azimuth Distance (km) Brightness Sun altitude
Exits shadow 02:22:50 - 298° (WNW) 2,064 -0.1 -24.1°
Reaches altitude 10° 02:24:40 10° 315° (NW) 1,469 -0.7 -24.0°
Maximum altitude 02:27:00 18° 0° (N) 1,094 -0.9 -23.9°
Drops below altitude 10° 02:29:20 10° 45° (NE) 1,471 -0.1 -23.8°
Sets 02:31:54 0° 66° (ENE) 2,333 0.7 -23.6°
